Weather History for Council Bluffs, IA

Change the Weather History Date:

Friday, June 14, 2013

  Actual Average Record
Temperature  
Mean Temperature 73 °F -  
Max Temperature 84 °F 78 °F 89 °F (2006)
Min Temperature 62 °F 60 °F 57 °F (1999)
Cooling Degree Days 8    
Growing Degree Days 23 (Base 50)    
Moisture  
Dew Point 64 °F    
Average Humidity 78    
Maximum Humidity 100    
Minimum Humidity 58    
Precipitation  
Precipitation 0.87 in - - ()
Sea Level Pressure  
Sea Level Pressure 29.93 in    
Wind  
Wind Speed 10 mph (SE)    
Max Wind Speed 28 mph    
Max Gust Speed 36 mph    
Visibility 10 miles    
Events Rain    
Averages and records for this station are not official NWS values.
T = Trace of Precipitation, MM = Missing Value Source: NWS Daily Summary

Daily Weather History Graph

Daily Weather History Graph

Search for Another Location

Airport:

Trip Planner

Search our weather history database for the weather conditions in past years. The results will help you decide how hot, cold, wet, or windy it might be!

Date:

Astronomy

Jun. 14, 2013 Rise Set
Actual Time 5:49 AM CDT 8:57 PM CDT
Civil Twilight 5:15 AM CDT 9:31 PM CDT
Nautical Twilight 4:32 AM CDT 10:14 PM CDT
Astronomical Twilight 3:41 AM CDT 11:06 PM CDT
Moon 11:28 AM CDT (6/14) 12:01 AM CDT (6/14)
Length of Visible Light 16h 15m
Length of Day
15h 08m
Waxing Crescent, 30% of the Moon is Illuminated
Jun 14
Waxing Crescent
Jun 16
First Quarter
Jun 23
Full
Jun 29
Last Quarter
Jul 8
New

Hourly Weather History & Observations

Time (CDT) Temp. Heat Index Dew Point Humidity Pressure Visibility Wind Dir Wind Speed Gust Speed Precip Events Conditions
12:15 AM 64.4 °F - 60.8 °F 88% 30.04 in 10.0 mi Calm Calm - N/A   Unknown
12:35 AM 64.4 °F - 60.8 °F 88% 30.04 in 10.0 mi Calm Calm - N/A   Mostly Cloudy
12:55 AM 64.4 °F - 60.8 °F 88% 30.04 in 10.0 mi Calm Calm - N/A   Mostly Cloudy
1:15 AM 64.4 °F - 60.8 °F 88% 30.03 in 10.0 mi NE 3.5 mph - N/A   Mostly Cloudy
1:35 AM 64.4 °F - 60.8 °F 88% 30.02 in 10.0 mi ENE 6.9 mph - N/A   Mostly Cloudy
1:55 AM 64.4 °F - 59.0 °F 83% 30.02 in 10.0 mi NE 4.6 mph - N/A   Unknown
2:15 AM 62.6 °F - 60.8 °F 94% 30.03 in 10.0 mi North 3.5 mph - N/A   Unknown
2:35 AM 62.6 °F - 60.8 °F 94% 30.04 in 10.0 mi North 4.6 mph - N/A   Unknown
2:55 AM 64.4 °F - 60.8 °F 88% 30.03 in 10.0 mi ENE 6.9 mph - N/A   Unknown
3:15 AM 64.4 °F - 60.8 °F 88% 30.02 in 10.0 mi Calm Calm - N/A   Unknown
3:35 AM 64.4 °F - 60.8 °F 88% 30.00 in 10.0 mi East 3.5 mph - N/A   Unknown
3:55 AM 66.2 °F - 59.0 °F 78% 30.00 in 10.0 mi ESE 6.9 mph - N/A   Unknown
4:15 AM 64.4 °F - 59.0 °F 83% 29.98 in 10.0 mi ESE 6.9 mph - N/A   Unknown
4:35 AM 64.4 °F - 59.0 °F 83% 29.97 in 10.0 mi ESE 5.8 mph - N/A   Unknown
4:55 AM 64.4 °F - 59.0 °F 83% 29.98 in 10.0 mi SSE 4.6 mph - N/A   Unknown
5:15 AM 64.4 °F - 59.0 °F 83% 29.99 in 10.0 mi South 8.1 mph - N/A   Unknown
5:35 AM 64.4 °F - 59.0 °F 83% 29.99 in 10.0 mi SE 6.9 mph - N/A   Unknown
5:55 AM 64.4 °F - 59.0 °F 83% 29.98 in 10.0 mi ESE 6.9 mph - N/A   Unknown
6:15 AM 66.2 °F - 59.0 °F 78% 29.98 in 10.0 mi SE 6.9 mph - N/A   Partly Cloudy
6:35 AM 66.2 °F - 59.0 °F 78% 29.99 in 10.0 mi SE 8.1 mph - N/A   Scattered Clouds
6:55 AM 66.2 °F - 60.8 °F 83% 29.98 in 10.0 mi SE 11.5 mph - N/A   Scattered Clouds
7:15 AM 66.2 °F - 60.8 °F 83% 29.98 in 10.0 mi ESE 9.2 mph - N/A   Mostly Cloudy
7:35 AM 66.2 °F - 60.8 °F 83% 29.98 in 10.0 mi SE 12.7 mph - N/A   Mostly Cloudy
7:55 AM 68.0 °F - 60.8 °F 78% 29.98 in 10.0 mi SSE 10.4 mph - N/A   Overcast
8:15 AM 68.0 °F - 60.8 °F 78% 29.97 in 10.0 mi SE 16.1 mph - N/A   Overcast
8:35 AM 68.0 °F - 62.6 °F 83% 29.98 in 10.0 mi North - - N/A   Overcast
8:55 AM 68.0 °F - 62.6 °F 83% 29.98 in 10.0 mi SSE 10.4 mph - N/A   Overcast
9:15 AM 69.8 °F - 64.4 °F 83% 29.97 in 10.0 mi North - - N/A   Mostly Cloudy
9:35 AM 69.8 °F - 64.4 °F 83% 29.97 in 10.0 mi North - - N/A   Mostly Cloudy
9:55 AM 69.8 °F - 64.4 °F 83% 29.96 in 10.0 mi SE 17.3 mph - N/A   Scattered Clouds
10:15 AM 69.8 °F - 64.4 °F 83% 29.93 in 10.0 mi North - - N/A   Clear
10:35 AM 71.6 °F - 64.4 °F 78% 29.91 in 10.0 mi SE 26.5 mph - N/A   Clear
10:55 AM 71.6 °F - 64.4 °F 78% 29.88 in 10.0 mi SE 24.2 mph 35.7 mph N/A   Clear
11:15 AM 73.4 °F - 64.4 °F 73% 29.89 in 10.0 mi SE 27.6 mph 34.5 mph N/A   Clear
11:35 AM 73.4 °F - 64.4 °F 73% 29.92 in 10.0 mi SE 24.2 mph 33.4 mph N/A   Partly Cloudy
11:55 AM 75.2 °F - 66.2 °F 73% 29.93 in 10.0 mi North - - N/A   Mostly Cloudy
12:15 PM 75.2 °F - 64.4 °F 69% 29.93 in 10.0 mi SSE 24.2 mph - N/A   Partly Cloudy
12:35 PM 77.0 °F - 66.2 °F 69% 29.93 in 10.0 mi SSE 20.7 mph 29.9 mph N/A   Clear
12:55 PM 77.0 °F - 66.2 °F 69% 29.92 in 10.0 mi SSE 24.2 mph 32.2 mph N/A   Partly Cloudy
1:15 PM 77.0 °F - 66.2 °F 69% 29.92 in 10.0 mi SSE 23.0 mph 31.1 mph N/A   Scattered Clouds
1:35 PM 77.0 °F - 66.2 °F 69% 29.91 in 10.0 mi SSE 19.6 mph 29.9 mph N/A   Partly Cloudy
1:55 PM 77.0 °F - 66.2 °F 69% 29.89 in 10.0 mi SSE 21.9 mph 27.6 mph N/A   Clear
2:15 PM 77.0 °F - 66.2 °F 69% 29.88 in 10.0 mi North - - N/A   Clear
2:35 PM 78.8 °F - 66.2 °F 65% 29.88 in 10.0 mi SSE 21.9 mph 31.1 mph N/A   Clear
2:55 PM 78.8 °F - 66.2 °F 65% 29.89 in 10.0 mi SSE 21.9 mph 28.8 mph N/A   Clear
3:15 PM 80.6 °F 83.2 °F 68.0 °F 65% 29.89 in 10.0 mi SSE 23.0 mph 29.9 mph N/A   Clear
3:35 PM 80.6 °F 83.2 °F 68.0 °F 65% 29.88 in 10.0 mi SE 19.6 mph 29.9 mph N/A   Clear
3:55 PM 80.6 °F 83.2 °F 68.0 °F 65% 29.86 in 10.0 mi North - - N/A   Clear
4:15 PM 80.6 °F 83.2 °F 68.0 °F 65% 29.86 in 10.0 mi North - - N/A   Clear
4:35 PM 82.4 °F 85.4 °F 68.0 °F 62% 29.85 in 10.0 mi SE 20.7 mph 26.5 mph N/A   Clear
4:55 PM 82.4 °F 85.4 °F 68.0 °F 62% 29.85 in 10.0 mi SE 17.3 mph 25.3 mph N/A   Clear
5:15 PM 82.4 °F 85.4 °F 68.0 °F 62% 29.84 in 10.0 mi North - - N/A   Clear
5:35 PM 84.2 °F 88.4 °F 69.8 °F 62% 29.84 in 10.0 mi North - - N/A   Clear
5:55 PM 84.2 °F 87.3 °F 68.0 °F 58% 29.83 in 10.0 mi SSE 23.0 mph 32.2 mph N/A   Clear
6:15 PM 84.2 °F 88.4 °F 69.8 °F 62% 29.82 in 10.0 mi SE 19.6 mph 25.3 mph N/A   Clear
6:35 PM 82.4 °F 85.4 °F 68.0 °F 62% 29.83 in 10.0 mi SE 21.9 mph 29.9 mph N/A   Mostly Cloudy
6:55 PM 82.4 °F 85.4 °F 68.0 °F 62% 29.82 in 10.0 mi SE 19.6 mph 27.6 mph N/A   Overcast
7:15 PM 80.6 °F 83.2 °F 68.0 °F 65% 29.81 in 10.0 mi SE 17.3 mph 28.8 mph N/A   Mostly Cloudy
7:35 PM 80.6 °F 83.2 °F 68.0 °F 65% 29.83 in 10.0 mi SE 19.6 mph 28.8 mph N/A   Scattered Clouds
7:55 PM 78.8 °F - 68.0 °F 69% 29.84 in 10.0 mi ESE 19.6 mph 28.8 mph N/A   Overcast
8:15 PM 77.0 °F - 68.0 °F 74% 29.81 in 10.0 mi SE 19.6 mph 27.6 mph N/A   Mostly Cloudy
8:35 PM 77.0 °F - 68.0 °F 74% 29.84 in 10.0 mi SE 20.7 mph - N/A   Scattered Clouds
8:55 PM 75.2 °F - 68.0 °F 78% 29.84 in 10.0 mi SE 19.6 mph - N/A   Partly Cloudy
9:15 PM 73.4 °F - 66.2 °F 78% 29.96 in 8.0 mi WNW 23.0 mph 35.7 mph N/A Rain Rain
9:35 PM 66.2 °F - 66.2 °F 100% 29.99 in 1.2 mi WNW 15.0 mph 33.4 mph N/A Rain Heavy Rain
9:55 PM 66.2 °F - 66.2 °F 100% 29.95 in 1.8 mi North 5.8 mph 21.9 mph 0.74 in Rain Heavy Rain
10:15 PM 66.2 °F - 66.2 °F 100% 29.92 in 3.0 mi SSE 5.8 mph 16.1 mph N/A Rain Rain
10:35 PM 66.2 °F - 66.2 °F 100% 29.88 in 10.0 mi East 3.5 mph - N/A Rain Light Rain
10:55 PM 66.2 °F - 66.2 °F 100% 29.89 in 10.0 mi SSE 5.8 mph - 0.13 in   Overcast
11:15 PM 66.2 °F - 66.2 °F 100% 29.89 in 10.0 mi SSE 13.8 mph - N/A   Mostly Cloudy
11:35 PM 66.2 °F - 66.2 °F 100% 29.87 in 10.0 mi South 11.5 mph - N/A   Partly Cloudy
11:55 PM 68.0 °F - 66.2 °F 94% 29.87 in 10.0 mi South 9.2 mph 16.1 mph N/A   Clear